Eden Prairie, MN

2:31 AM CST on February 06, 2016 (GMT -0600)
Flying Cloud

Weather History for KFCM - March, 2014

Change the Weather History Date:

Friday, March 28, 2014

  Actual Average Record
Temperature  
Mean Temperature 32 °F -  
Max Temperature 37 °F 44 °F 66 °F (2005)
Min Temperature 27 °F 28 °F 17 °F (2011)
Degree Days  
Heating Degree Days 32    
Moisture  
Dew Point 21 °F    
Average Humidity 64    
Maximum Humidity 82    
Minimum Humidity 48    
Precipitation  
Precipitation 0.00 in - - ()
Sea Level Pressure  
Sea Level Pressure 30.03 in    
Wind  
Wind Speed 10 mph (North)    
Max Wind Speed 16 mph    
Max Gust Speed 25 mph    
Visibility 10 miles    
Events      
Averages and records for this station are not official NWS values.
T = Trace of Precipitation, MM = Missing Value Source: NWS Daily Summary

Daily Weather History Graph

Daily Weather History Graph

Search for Another Location

Airport or City:

Trip Planner

Search our weather history database for the weather conditions in past years. The results will help you decide how hot, cold, wet, or windy it might be!

Date:

Astronomy

Mar. 28, 2014 Rise Set
Actual Time 7:01 AM CDT 7:36 PM CDT
Civil Twilight 6:32 AM CDT 8:05 PM CDT
Nautical Twilight 5:57 AM CDT 8:40 PM CDT
Astronomical Twilight 5:21 AM CDT 9:17 PM CDT
Moon 5:38 AM CDT (3/28) 5:29 PM CDT (3/28)
Length of Visible Light 13h 33m
Length of Day
12h 34m
Waning Crescent, 6% of the Moon is Illuminated
Mar 28
Waning Crescent
Mar 30
New
Apr 7
First Quarter
Apr 15
Full
Apr 22
Last Quarter

Hourly Weather History & Observations

Time (CDT) Temp. Windchill Dew Point Humidity Pressure Visibility Wind Dir Wind Speed Gust Speed Precip Events Conditions
12:06 AM 32.0 °F 23.0 °F 26.6 °F 80% 29.73 in 8.0 mi North 11.5 mph 25.3 mph N/A   Overcast
12:53 AM 32.0 °F 22.5 °F 27.0 °F 82% 29.78 in 9.0 mi North 12.7 mph 19.6 mph N/A   Overcast
1:07 AM 32.0 °F 22.5 °F 26.6 °F 80% 29.76 in 9.0 mi North 12.7 mph 23.0 mph N/A   Overcast
1:30 AM 32.0 °F 21.6 °F 26.6 °F 80% 29.77 in 10.0 mi North 15.0 mph 20.7 mph N/A   Overcast
1:38 AM 32.0 °F 22.1 °F 26.6 °F 80% 29.77 in 10.0 mi North 13.8 mph 24.2 mph N/A   Overcast
1:53 AM 32.0 °F 22.5 °F 26.1 °F 79% 29.81 in 10.0 mi North 12.7 mph 23.0 mph N/A   Overcast
2:53 AM 32.0 °F 23.0 °F 25.0 °F 75% 29.85 in 10.0 mi NNW 11.5 mph - N/A   Overcast
3:53 AM 30.9 °F 19.8 °F 23.0 °F 72% 29.88 in 10.0 mi North 16.1 mph 24.2 mph N/A   Overcast
4:53 AM 30.9 °F 21.7 °F 21.0 °F 67% 29.92 in 10.0 mi North 11.5 mph 20.7 mph N/A   Overcast
5:53 AM 30.9 °F 21.7 °F 19.9 °F 64% 29.95 in 10.0 mi NNE 11.5 mph - N/A   Overcast
6:17 AM 30.2 °F 23.4 °F 19.4 °F 64% 29.93 in 10.0 mi North 6.9 mph - N/A   Scattered Clouds
6:53 AM 28.9 °F 25.2 °F 21.0 °F 72% 29.99 in 10.0 mi NNW 3.5 mph - N/A   Clear
7:53 AM 28.0 °F 18.6 °F 21.9 °F 78% 30.01 in 10.0 mi North 10.4 mph - N/A   Clear
8:53 AM 28.9 °F 21.1 °F 19.9 °F 69% 30.05 in 10.0 mi NNW 8.1 mph - N/A   Clear
9:53 AM 30.9 °F 25.2 °F 19.9 °F 64% 30.07 in 10.0 mi North 5.8 mph - N/A   Clear
10:53 AM 34.0 °F 27.2 °F 19.9 °F 56% 30.09 in 10.0 mi ENE 8.1 mph - N/A   Clear
11:53 AM 36.0 °F 30.3 °F 19.9 °F 52% 30.13 in 10.0 mi NNW 6.9 mph - N/A   Clear
12:53 PM 37.0 °F 32.4 °F 21.9 °F 54% 30.12 in 10.0 mi North 5.8 mph - N/A   Clear
1:53 PM 37.0 °F 30.4 °F 19.9 °F 50% 30.13 in 10.0 mi NNW 9.2 mph - N/A   Clear
2:53 PM 37.0 °F 31.0 °F 19.9 °F 50% 30.14 in 10.0 mi NNW 8.1 mph - N/A   Clear
3:53 PM 36.0 °F 29.0 °F 19.0 °F 50% 30.16 in 10.0 mi North 9.2 mph - N/A   Clear
4:53 PM 35.1 °F 27.9 °F 18.0 °F 50% 30.18 in 10.0 mi NNW 9.2 mph - N/A   Overcast
5:53 PM 35.1 °F 28.6 °F 17.1 °F 48% 30.19 in 10.0 mi NNW 8.1 mph - N/A   Overcast
6:53 PM 34.0 °F 26.6 °F 17.1 °F 50% 30.22 in 10.0 mi NNW 9.2 mph - N/A   Overcast
7:53 PM 33.1 °F 26.9 °F 16.0 °F 50% 30.21 in 10.0 mi NNW 6.9 mph - N/A   Overcast
8:53 PM 30.9 °F 24.3 °F 16.0 °F 54% 30.23 in 10.0 mi NNW 6.9 mph - N/A   Overcast
9:53 PM 28.9 °F 23.9 °F 16.0 °F 58% 30.25 in 10.0 mi NW 4.6 mph - N/A   Clear
10:53 PM 28.0 °F 22.8 °F 16.0 °F 61% 30.26 in 10.0 mi NNW 4.6 mph - N/A   Clear
11:53 PM 27.0 °F 20.5 °F 14.0 °F 58% 30.27 in 10.0 mi North 5.8 mph - N/A   Clear